TimeEST,TemperatureF,Dew PointF,Humidity,Sea Level PressureIn,VisibilityMPH,Wind Direction,Wind SpeedMPH,Gust SpeedMPH,PrecipitationIn,Events,Conditions,WindDirDegrees,DateUTC
12:52 AM,18.0,15.1,88,30.62,8.0,Calm,Calm,-,N/A,,Clear,0,2013-11-21 05:52:00
1:52 AM,18.0,14.0,84,30.63,10.0,Calm,Calm,-,N/A,,Clear,0,2013-11-21 06:52:00
2:52 AM,18.0,14.0,84,30.62,10.0,Calm,Calm,-,N/A,,Clear,0,2013-11-21 07:52:00
3:52 AM,18.0,15.1,88,30.61,10.0,Calm,Calm,-,N/A,,Clear,0,2013-11-21 08:52:00
4:52 AM,18.0,14.0,84,30.62,10.0,Calm,Calm,-,N/A,,Clear,0,2013-11-21 09:52:00
5:52 AM,18.0,14.0,84,30.62,10.0,Calm,Calm,-,N/A,,Clear,0,2013-11-21 10:52:00
6:52 AM,19.0,15.1,85,30.64,10.0,Calm,Calm,-,N/A,,Clear,0,2013-11-21 11:52:00
7:52 AM,27.0,21.9,81,30.63,9.0,Calm,Calm,-,N/A,,Clear,0,2013-11-21 12:52:00
8:52 AM,32.0,21.0,64,30.61,10.0,Calm,Calm,-,N/A,,Clear,0,2013-11-21 13:52:00
9:52 AM,39.9,24.1,53,30.61,10.0,Calm,Calm,-,N/A,,Clear,0,2013-11-21 14:52:00
10:52 AM,46.0,25.0,44,30.59,10.0,Variable,3.5,-,N/A,,Clear,0,2013-11-21 15:52:00
11:52 AM,48.0,25.0,41,30.57,10.0,WSW,8.1,-,N/A,,Clear,250,2013-11-21 16:52:00
12:52 PM,48.9,24.1,38,30.55,10.0,WSW,9.2,-,N/A,,Clear,250,2013-11-21 17:52:00
1:52 PM,48.9,23.0,36,30.52,10.0,Calm,Calm,-,N/A,,Clear,0,2013-11-21 18:52:00
2:52 PM,48.0,21.0,34,30.50,10.0,Calm,Calm,-,N/A,,Clear,0,2013-11-21 19:52:00
3:52 PM,44.1,23.0,43,30.50,10.0,SSW,4.6,-,N/A,,Clear,210,2013-11-21 20:52:00
4:52 PM,39.0,25.0,57,30.49,10.0,Calm,Calm,-,N/A,,Clear,0,2013-11-21 21:52:00
5:52 PM,34.0,26.1,73,30.49,10.0,Calm,Calm,-,N/A,,Clear,0,2013-11-21 22:52:00
6:52 PM,32.0,26.1,79,30.48,10.0,Calm,Calm,-,N/A,,Clear,0,2013-11-21 23:52:00
7:52 PM,35.1,28.0,76,30.47,10.0,Calm,Calm,-,N/A,,Clear,0,2013-11-22 00:52:00
8:52 PM,35.1,28.0,76,30.45,10.0,ESE,3.5,-,N/A,,Clear,110,2013-11-22 01:52:00
9:52 PM,35.1,28.9,78,30.45,10.0,Calm,Calm,-,N/A,,Scattered Clouds,0,2013-11-22 02:52:00
10:52 PM,37.0,30.9,79,30.43,10.0,Calm,Calm,-,N/A,,Overcast,0,2013-11-22 03:52:00
11:52 PM,37.0,32.0,82,30.40,10.0,Calm,Calm,-,N/A,,Overcast,0,2013-11-22 04:52:00